Wetbulb
62.33 62.07 63.89 61.38 51.06 49.96 45.89 47.29 49.74 49.41 49.31 51.40 51.54 51.66 51.19 52.21 49.98 48.02 59.83 64.43 64.72 65.87 70.45 72.07 72.59 73.14 73.28 72.94 72.60 71.67 71.53 72.07 72.45 72.45 72.08 71.85 71.31 70.76 70.83 70.90 71.04 70.86 70.18 69.20 68.19 67.63 67.28 67.17 67.18
61.05 60.41 62.04 58.17 47.56 43.59 44.79 48.75 48.49 50.34 50.76 51.42 51.36 51.56 51.27 50.79 54.87 56.61 60.14 63.66 65.10 66.06 70.27 71.71 71.23 72.88 73.13 72.92 72.51 71.59 71.43 71.81 72.30 72.21 71.68 71.55 71.02 70.42 69.90 69.22 69.10 69.18 68.79 67.68 66.04 65.58 64.91 64.45 63.70
59.10 58.57 56.05 52.06 48.37 43.96 45.40 48.60 49.49 49.82 50.83 51.32 51.24 52.65 52.67 52.44 54.89 57.91 61.49 64.15 65.28 65.90 69.31 70.80 70.75 72.48 73.00 72.96 72.58 72.08 71.49 72.06 72.35 71.82 71.21 70.77 70.13 68.30 67.80 66.76 67.28 67.83 66.97 65.66 64.27 63.25 62.62 61.84 61.67
59.46 58.28 55.02 47.74 45.04 48.00 47.53 49.83 50.67 51.13 50.28 50.90 51.28 50.14 52.73 55.67 56.23 58.63 61.18 65.00 65.41 65.75 67.76 69.32 70.78 72.13 72.62 72.74 72.58 72.05 71.52 72.10 71.70 71.04 70.28 68.77 68.02 67.18 65.51 65.47 66.82 66.10 65.17 63.96 62.62 61.55 61.22 60.38 59.63
58.67 55.75 48.41 45.82 45.15 47.40 49.57 50.16 50.05 49.35 49.77 50.41 50.55 50.25 51.08 53.82 56.11 57.83 62.08 64.55 65.63 65.87 67.64 69.29 70.02 71.57 72.13 72.50 72.52 72.28 72.33 72.20 71.82 70.75 68.23 68.55 67.81 66.52 65.23 64.31 64.66 64.04 63.02 61.74 61.35 61.35 59.73 59.03 58.28
53.25 53.85 45.75 43.75 44.80 47.51 49.57 50.65 49.67 49.58 50.13 49.95 49.51 50.40 52.31 54.55 54.70 57.48 61.73 64.56 66.17 66.03 67.57 68.85 67.63 69.41 70.69 71.49 71.89 72.03 72.08 71.90 70.34 69.22 66.84 68.28 66.99 65.79 64.53 63.44 63.18 62.46 61.37 60.98 60.99 59.97 58.75 58.00 57.07
50.67 49.64 45.04 45.01 45.40 46.70 49.02 49.36 49.13 49.86 49.68 50.40 51.65 49.40 53.27 54.00 54.61 57.20 60.58 64.28 65.62 66.67 67.06 68.29 69.11 68.94 66.95 68.30 68.91 69.71 70.06 69.71 69.22 68.55 67.78 67.33 66.37 64.89 63.40 62.44 61.75 61.30 60.76 60.63 59.68 58.81 57.97 56.81 55.46
54.36 51.67 45.30 46.27 45.20 44.96 49.43 48.80 50.04 49.91 49.53 50.74 51.93 49.59 50.51 54.41 54.67 57.73 60.31 62.65 64.16 65.70 66.41 67.25 68.45 68.80 69.20 69.27 65.69 66.58 67.66 67.70 67.81 66.88 66.08 64.64 63.82 63.49 62.48 61.47 61.51 60.87 60.60 59.36 58.48 57.92 56.67 55.38 53.53
51.78 47.45 44.62 44.86 44.42 46.16 49.46 48.36 49.33 50.57 50.26 50.13 51.70 52.51 54.67 52.78 54.77 56.83 58.62 60.43 62.03 62.78 64.78 66.34 66.90 67.75 67.95 67.95 66.11 64.56 64.84 65.30 65.06 64.87 62.61 61.17 63.72 61.89 60.43 59.78 61.36 60.71 59.41 58.18 57.33 56.41 54.84 52.81 50.84
50.79 47.06 45.95 48.23 48.30 47.27 49.03 48.75 49.94 49.10 50.28 50.87 50.62 53.31 53.21 51.85 53.93 55.22 56.68 58.14 59.91 61.16 62.31 64.27 65.32 65.88 66.59 66.46 67.21 67.66 67.49 67.42 66.88 66.18 62.97 63.95 62.44 60.91 59.22 57.63 59.43 60.63 58.67 56.71 55.97 54.14 50.85 47.74 49.50
50.11 46.85 49.45 48.39 48.44 48.15 48.31 48.69 49.78 49.19 48.46 51.17 50.94 52.40 54.10 52.47 52.82 53.39 55.34 57.13 58.95 61.03 62.02 62.21 63.40 64.66 65.16 65.24 65.91 66.23 67.05 67.10 66.12 65.04 64.02 62.63 60.07 58.50 57.75 58.34 58.73 58.86 55.48 55.17 53.60 50.43 48.26 48.15 48.32
46.69 49.56 49.55 49.65 49.05 48.41 47.92 49.65 48.39 49.46 50.46 52.70 53.27 53.73 53.13 52.49 52.51 52.93 53.90 55.68 57.29 58.79 60.68 61.77 62.19 62.70 63.79 64.92 64.56 65.01 65.37 65.68 64.08 63.58 62.03 59.71 58.40 57.20 56.24 57.18 57.57 56.96 55.07 53.33 50.46 48.37 48.09 47.27 46.30
46.93 48.79 49.57 50.22 48.94 48.83 49.70 48.36 48.83 49.27 51.93 53.01 52.91 51.78 51.09 51.96 52.40 53.65 53.94 54.92 56.52 56.96 58.53 60.07 61.35 61.57 62.22 62.99 63.37 63.68 63.67 63.92 63.19 62.20 60.00 58.77 57.29 55.52 54.84 55.57 55.41 54.83 52.92 50.46 47.79 47.58 46.64 46.13 45.27
47.85 47.54 48.01 48.41 48.13 48.43 46.46 47.96 47.04 49.00 51.47 50.53 50.59 50.73 51.50 51.08 51.68 52.44 52.64 52.22 53.53 55.43 56.94 58.79 59.47 60.59 61.28 61.64 62.15 62.30 62.36 62.99 62.59 61.06 59.14 57.38 56.33 54.20 53.24 53.54 53.02 51.97 49.96 47.99 47.33 46.56 46.16 45.73 45.44
46.79 44.31 46.72 47.26 46.79 46.05 47.05 44.45 44.77 49.86 50.12 48.78 49.55 50.56 50.82 51.13 51.65 51.34 52.96 53.33 53.51 54.23 55.58 56.53 57.96 59.15 59.97 60.18 61.08 61.55 61.42 61.28 61.27 59.74 58.38 55.96 54.53 52.72 51.72 51.66 50.80 49.09 47.34 46.48 46.18 45.26 45.24 44.69 44.14
43.92 43.29 40.91 46.23 44.14 45.14 46.12 41.70 47.33 49.79 47.52 47.68 48.98 50.02 50.47 51.12 51.77 52.66 52.82 52.91 53.67 53.89 53.60 54.71 55.33 56.98 58.31 59.30 60.07 60.23 60.34 59.58 59.20 59.05 57.51 55.07 53.11 51.75 50.58 49.89 48.78 47.01 45.65 45.40 44.90 44.20 43.74 44.14 43.84
42.98 39.23 40.35 41.68 45.30 43.70 44.28 42.23 46.93 48.47 47.37 46.76 48.05 48.85 49.44 50.19 51.05 52.28 52.98 53.05 53.01 53.34 53.08 52.89 53.89 54.94 56.32 58.09 58.84 59.42 58.95 58.65 58.18 58.08 56.73 54.58 52.32 50.76 49.47 49.05 47.88 45.76 44.72 44.37 44.34 43.75 43.98 43.21 43.18
40.70 39.82 40.21 39.30 44.20 43.86 42.25 41.76 44.44 46.24 45.94 45.76 46.99 48.00 49.05 49.63 50.27 51.52 51.73 52.35 52.60 53.02 52.88 52.82 52.54 53.14 54.93 56.04 57.17 57.72 57.43 57.52 57.51 56.91 55.54 53.98 51.75 49.55 48.74 47.63 47.23 44.97 43.92 43.59 43.60 43.02 43.05 43.77 42.91
41.79 40.29 39.38 42.20 44.47 41.71 41.55 42.07 43.89 45.77 46.00 45.81 46.47 47.31 48.54 49.29 50.45 50.98 51.04 51.16 51.03 51.28 51.02 50.91 50.93 50.89 52.53 53.22 53.54 54.41 54.01 54.66 54.89 55.51 54.06 53.30 51.47 49.40 48.22 47.53 46.48 44.23 43.42 43.61 43.11 42.77 41.27 41.13 42.19
40.78 39.10 39.04 42.43 43.69 39.84 41.35 40.63 43.43 45.14 45.61 46.82 47.18 47.38 47.90 48.38 49.02 49.73 49.22 49.16 48.71 48.85 49.35 49.15 49.11 49.67 50.11 52.17 53.16 53.58 53.13 53.42 53.48 53.89 52.76 52.48 50.67 48.99 47.43 46.79 45.73 43.98 43.54 42.98 42.62 42.12 40.84 41.72 41.47
40.54 38.23 39.50 39.55 41.76 41.67 39.23 40.20 41.27 45.69 46.59 46.93 46.39 47.30 46.69 46.61 46.93 47.57 47.26 46.99 46.78 45.72 45.90 46.02 47.10 48.04 48.49 50.28 51.44 51.41 49.52 50.58 49.82 50.19 49.95 49.59 49.54 48.25 46.89 46.56 45.60 44.13 44.03 42.86 42.69 42.28 41.75 40.32 40.04
37.36 42.99 40.19 38.28 36.75 34.96 39.54 33.72 41.57 44.34 44.73 45.78 46.00 46.56 46.77 47.27 46.86 45.67 44.28 44.09 43.30 43.05 44.75 44.99 45.37 46.01 46.22 48.10 48.39 48.30 46.95 46.33 47.26 47.30 47.94 47.83 47.48 47.27 46.72 46.12 45.33 44.45 43.62 43.13 42.85 42.59 42.93 43.39 39.49
39.60 39.85 37.88 36.74 36.35 34.86 37.10 33.52 41.26 41.02 40.74 43.84 45.25 45.64 45.25 45.64 44.51 42.82 42.60 42.56 42.68 42.37 42.56 43.51 44.30 44.23 45.06 45.60 46.76 46.29 46.18 47.75 48.12 46.53 46.49 45.93 45.50 45.87 45.58 45.22 44.79 44.02 43.00 43.37 42.65 41.55 42.00 42.65 42.99
39.95 39.01 37.89 36.55 36.08 31.11 38.34 36.14 38.83 41.03 41.21 43.01 44.26 42.67 42.88 42.36 42.29 41.98 42.46 42.49 41.58 42.54 41.89 41.96 42.68 42.25 43.26 43.82 44.49 44.39 44.51 45.25 44.95 44.37 44.46 44.49 43.99 43.61 44.14 43.78 43.76 43.33 42.61 42.17 41.87 41.46 41.56 41.52 42.41
38.41 36.78 33.15 32.34 32.53 32.05 35.24 34.01 37.51 42.68 42.14 42.04 40.65 40.10 40.45 41.13 40.86 40.21 39.61 39.96 40.33 40.26 40.68 40.49 40.75 39.89 41.18 42.04 42.56 42.84 43.11 43.67 43.73 43.72 43.49 43.61 42.71 41.80 41.98 42.31 42.26 42.22 42.18 42.13 41.79 40.64 40.54 40.67 40.45
37.10 37.79 34.30 26.60 28.97 33.01 36.03 32.10 38.93 45.19 42.23 41.34 40.21 39.75 39.55 39.12 39.78 39.44 39.39 39.27 39.49 39.76 40.11 40.36 39.66 39.12 39.72 39.71 39.68 40.89 41.53 42.00 42.70 42.92 43.03 43.26 42.80 42.78 42.50 41.41 41.37 41.54 41.42 41.01 40.72 39.84 39.29 39.84 39.81
36.57 33.67 39.46 33.19 33.77 30.03 34.18 38.42 42.72 43.11 39.57 39.83 39.19 39.00 37.55 37.54 37.96 38.02 38.59 38.48 38.75 38.91 38.80 39.33 38.88 38.65 39.02 39.49 39.67 39.37 39.61 39.70 40.00 40.98 41.49 41.98 42.51 42.02 42.02 41.18 39.80 40.51 40.31 39.77 39.34 38.57 37.84 38.31 38.90
37.31 40.57 33.16 32.31 24.72 24.36 30.29 32.98 35.35 37.17 36.68 37.47 37.10 36.10 35.51 36.03 36.81 37.66 38.09 37.36 37.59 38.41 38.85 38.59 38.94 37.47 37.41 38.13 38.82 38.85 38.85 38.79 39.03 39.21 38.65 39.31 40.24 40.33 39.51 39.90 38.92 39.62 39.42 38.35 38.07 37.58 38.12 37.44 37.65
35.94 32.97 33.60 33.21 31.21 26.61 25.57 31.37 39.96 37.08 36.52 35.36 34.04 33.12 33.34 33.92 35.11 36.37 37.23 37.38 36.88 37.34 37.35 37.03 37.19 36.64 36.01 36.17 37.22 37.74 38.11 38.15 37.90 37.60 37.81 37.76 38.42 38.38 38.01 38.27 37.85 37.95 37.30 37.43 36.98 36.85 36.77 35.53 35.85
37.47 36.16 36.64 30.07 28.45 31.19 30.21 30.95 38.20 36.28 35.51 33.59 31.40 31.71 32.72 33.23 33.67 35.02 36.55 35.85 34.79 34.79 35.56 35.74 35.51 35.50 35.11 35.30 35.88 35.74 36.56 36.18 36.08 36.77 37.00 37.38 36.52 37.14 36.77 36.90 35.90 35.80 36.41 36.25 35.47 35.34 35.12 34.40 33.88
MSLP
1016.64 1016.35 1015.98 1015.30 1014.74 1013.85 1012.87 1012.98 1013.35 1013.18 1013.26 1013.55 1013.72 1013.48 1013.20 1012.99 1012.46 1012.99 1013.83 1013.94 1014.38 1014.38 1014.86 1015.64 1015.97 1016.33 1016.64 1016.95 1017.29 1017.56 1017.86 1017.95 1018.11 1018.28 1018.47 1018.61 1018.83 1018.93 1019.04 1019.13 1019.15 1019.17 1019.12 1019.25 1019.56 1019.66 1019.71 1019.81 1019.75
1016.40 1016.28 1015.76 1014.91 1014.11 1013.01 1012.44 1013.03 1013.10 1013.25 1013.54 1013.87 1013.88 1013.65 1013.36 1012.40 1012.86 1012.94 1013.54 1014.07 1014.47 1014.49 1014.90 1015.26 1015.95 1016.23 1016.58 1016.89 1017.09 1017.41 1017.72 1017.95 1018.10 1018.31 1018.46 1018.62 1018.86 1019.09 1019.20 1019.34 1019.33 1019.30 1019.32 1019.58 1019.94 1019.95 1019.99 1020.25 1020.04
1016.51 1016.30 1015.23 1014.70 1014.08 1012.99 1012.68 1012.95 1013.12 1013.53 1013.80 1013.80 1013.56 1013.68 1013.15 1012.47 1012.84 1013.13 1013.77 1014.14 1014.67 1014.69 1015.04 1015.35 1016.03 1016.21 1016.47 1016.78 1017.03 1017.24 1017.52 1017.82 1017.98 1018.21 1018.49 1018.69 1018.89 1019.05 1019.40 1019.74 1019.66 1019.50 1019.75 1019.91 1020.09 1020.15 1020.23 1020.30 1020.31
1016.27 1015.89 1015.90 1014.86 1013.85 1013.49 1013.44 1013.08 1013.47 1013.36 1013.77 1013.99 1013.67 1013.09 1013.19 1012.83 1013.06 1013.50 1014.00 1014.15 1014.54 1014.81 1015.26 1015.52 1016.03 1016.32 1016.51 1016.71 1017.00 1017.20 1017.40 1017.71 1017.95 1018.14 1018.43 1018.54 1018.85 1019.18 1019.68 1019.82 1019.79 1019.91 1020.00 1020.17 1020.19 1020.39 1020.33 1020.49 1020.44
1016.35 1015.65 1014.95 1014.62 1014.09 1013.79 1013.67 1013.73 1013.77 1013.43 1013.51 1013.57 1013.79 1012.81 1012.72 1012.88 1013.53 1013.95 1014.14 1014.33 1014.36 1014.65 1015.10 1015.57 1016.07 1016.17 1016.45 1016.71 1016.98 1017.19 1017.38 1017.62 1017.87 1018.04 1018.27 1018.62 1018.91 1019.29 1019.78 1019.86 1019.89 1019.98 1020.12 1020.27 1020.30 1020.58 1020.68 1020.67 1020.71
1015.72 1015.71 1014.80 1014.15 1013.95 1013.82 1013.73 1013.84 1013.93 1013.58 1013.39 1013.59 1013.64 1013.07 1012.48 1012.94 1013.46 1013.67 1014.17 1014.32 1014.35 1014.60 1015.01 1015.30 1015.87 1016.15 1016.31 1016.57 1016.84 1017.16 1017.33 1017.55 1017.76 1017.87 1018.27 1018.65 1019.02 1019.44 1019.82 1019.97 1020.02 1020.14 1020.31 1020.39 1020.45 1020.81 1020.91 1020.96 1020.99
1015.57 1015.39 1014.74 1014.56 1014.07 1013.83 1013.65 1014.09 1013.73 1013.32 1013.37 1013.19 1013.42 1012.80 1012.26 1012.62 1013.49 1014.03 1014.28 1014.40 1014.59 1014.63 1015.17 1015.32 1015.48 1015.93 1016.31 1016.53 1016.77 1017.07 1017.32 1017.54 1017.72 1017.97 1018.50 1018.74 1019.11 1019.51 1019.81 1019.99 1020.09 1020.22 1020.35 1020.57 1020.73 1020.84 1021.02 1021.16 1021.20
1016.17 1015.59 1015.16 1014.69 1014.03 1013.67 1013.71 1013.95 1013.85 1013.47 1012.96 1013.59 1013.58 1012.37 1011.88 1012.73 1013.86 1014.24 1014.40 1014.45 1014.63 1014.74 1014.96 1015.19 1015.36 1015.55 1015.79 1016.16 1016.62 1016.97 1017.18 1017.41 1017.64 1017.87 1018.47 1018.89 1019.37 1019.68 1019.91 1020.10 1020.12 1020.22 1020.41 1020.55 1020.84 1021.08 1021.22 1021.40 1021.49
1016.72 1015.60 1014.66 1014.28 1014.21 1013.35 1013.79 1013.73 1013.94 1013.73 1013.29 1013.17 1012.88 1012.15 1011.93 1013.28 1013.92 1014.08 1014.23 1014.39 1014.45 1014.59 1014.76 1014.83 1015.14 1015.36 1015.50 1015.74 1016.21 1016.80 1017.08 1017.28 1017.54 1017.79 1018.39 1019.03 1019.28 1019.60 1019.91 1020.08 1020.26 1020.35 1020.67 1020.75 1020.86 1021.11 1021.26 1021.49 1021.73
1016.22 1015.43 1014.42 1014.15 1013.95 1013.61 1013.61 1013.68 1013.53 1013.50 1012.61 1012.04 1012.00 1011.79 1012.25 1013.15 1013.48 1013.46 1013.42 1013.24 1013.55 1013.67 1014.07 1014.43 1014.68 1014.93 1015.31 1015.64 1015.93 1016.37 1016.59 1016.85 1017.12 1017.48 1018.16 1018.62 1019.02 1019.38 1019.70 1020.13 1020.45 1020.49 1020.79 1021.05 1021.20 1021.49 1021.68 1021.63 1021.35
1016.08 1014.95 1014.40 1014.15 1014.07 1014.20 1013.84 1013.69 1013.71 1012.88 1011.48 1011.31 1011.02 1010.82 1011.27 1012.15 1012.44 1012.63 1012.43 1012.24 1012.16 1012.74 1013.31 1013.72 1014.08 1014.34 1014.76 1015.16 1015.59 1015.74 1015.99 1016.25 1016.53 1017.10 1017.74 1018.34 1018.91 1019.53 1019.80 1019.94 1020.34 1020.55 1021.00 1021.00 1021.37 1021.81 1021.60 1021.72 1021.66
1015.99 1015.04 1014.71 1014.24 1014.34 1014.53 1014.13 1013.69 1013.17 1012.64 1010.78 1010.50 1010.52 1010.83 1011.11 1011.26 1011.16 1011.32 1011.33 1011.39 1011.69 1011.99 1012.28 1013.02 1013.56 1013.98 1014.16 1014.47 1014.81 1015.05 1015.43 1015.73 1016.12 1016.54 1017.31 1017.92 1018.49 1018.96 1019.31 1019.54 1019.87 1020.35 1020.73 1020.95 1021.38 1021.58 1021.81 1021.83 1021.91
1015.80 1014.86 1014.58 1014.36 1014.55 1014.41 1014.11 1012.88 1012.66 1011.31 1010.83 1010.46 1010.43 1010.65 1010.60 1010.49 1010.35 1010.40 1010.68 1010.89 1011.20 1011.36 1011.83 1012.39 1013.03 1013.27 1013.66 1014.08 1014.13 1014.35 1014.61 1015.05 1015.50 1016.17 1016.90 1017.22 1017.67 1018.27 1018.78 1019.19 1019.64 1019.99 1020.49 1020.80 1021.11 1021.35 1021.58 1021.86 1022.08
1015.45 1015.13 1014.58 1014.38 1014.16 1013.93 1013.82 1012.01 1012.42 1010.24 1010.42 1010.03 1009.90 1009.79 1009.70 1009.87 1009.67 1009.60 1009.88 1010.12 1010.65 1010.84 1011.00 1011.58 1011.99 1012.38 1012.72 1013.04 1013.23 1013.35 1013.74 1014.03 1014.63 1015.25 1015.92 1016.56 1016.96 1017.65 1018.23 1018.72 1019.28 1019.72 1020.26 1020.54 1020.78 1021.04 1021.39 1021.68 1022.00
1015.82 1015.26 1014.20 1013.35 1013.42 1013.64 1013.58 1012.23 1011.03 1009.79 1010.13 1009.78 1008.97 1008.76 1008.84 1008.83 1009.02 1008.92 1008.83 1009.19 1009.67 1009.62 1009.81 1010.06 1010.56 1011.19 1011.58 1011.85 1012.22 1012.44 1012.81 1013.37 1013.79 1014.35 1015.02 1015.77 1016.36 1016.83 1017.46 1018.17 1018.79 1019.27 1019.99 1020.51 1020.93 1021.31 1021.55 1021.70 1021.98
1015.67 1015.35 1013.77 1012.40 1013.33 1013.43 1013.39 1011.30 1009.84 1009.83 1009.97 1009.33 1008.86 1008.16 1007.90 1007.49 1007.66 1008.05 1008.32 1008.37 1008.43 1008.63 1008.93 1009.29 1009.89 1010.25 1010.66 1011.03 1011.49 1011.88 1012.20 1012.79 1013.27 1013.81 1014.45 1015.06 1015.72 1016.44 1017.15 1017.62 1018.15 1018.90 1019.71 1020.13 1020.52 1020.92 1021.23 1021.48 1021.79
1014.96 1013.83 1013.34 1013.01 1012.59 1013.19 1013.20 1011.24 1010.23 1010.13 1009.89 1008.80 1008.25 1007.73 1007.37 1007.37 1007.09 1007.51 1007.44 1007.50 1007.50 1007.46 1007.71 1008.15 1008.88 1009.29 1009.75 1010.20 1010.75 1011.23 1011.79 1012.21 1012.57 1013.11 1013.61 1014.49 1015.27 1015.73 1016.28 1016.94 1017.64 1018.53 1019.14 1019.66 1020.02 1020.42 1020.69 1021.20 1021.68
1013.37 1013.46 1013.21 1012.98 1012.25 1012.46 1012.30 1011.21 1010.94 1010.01 1009.50 1008.37 1007.65 1006.94 1007.42 1006.90 1007.04 1007.36 1007.43 1007.37 1007.28 1007.04 1007.18 1007.46 1008.16 1008.85 1009.44 1010.23 1010.70 1010.95 1011.27 1011.47 1011.81 1012.17 1012.81 1013.57 1014.42 1015.40 1016.07 1016.62 1017.25 1018.08 1018.53 1018.99 1019.51 1019.99 1020.62 1020.85 1021.31
1013.87 1013.49 1012.91 1012.50 1012.62 1012.61 1011.21 1010.45 1010.12 1009.48 1008.46 1007.55 1007.00 1007.24 1007.08 1007.15 1007.31 1007.40 1007.70 1007.90 1007.96 1007.61 1007.57 1007.81 1008.08 1008.79 1009.35 1009.66 1010.01 1010.60 1010.88 1011.78 1012.01 1012.06 1012.52 1013.04 1013.70 1014.42 1015.14 1015.78 1016.65 1017.56 1017.84 1018.23 1018.94 1019.53 1020.15 1020.81 1021.15
1014.27 1013.77 1013.04 1012.40 1012.32 1012.70 1011.23 1010.20 1009.26 1008.45 1007.74 1006.87 1006.75 1006.92 1007.42 1007.59 1007.46 1007.78 1008.30 1008.59 1008.61 1008.34 1008.06 1007.85 1008.13 1008.60 1008.88 1009.14 1009.43 1009.73 1010.27 1010.98 1011.84 1012.40 1012.80 1013.06 1013.48 1013.97 1014.49 1014.92 1015.55 1016.49 1017.27 1017.94 1018.50 1018.97 1019.43 1019.82 1020.45
1014.35 1014.08 1012.90 1012.73 1012.64 1012.25 1011.63 1009.69 1008.85 1007.67 1006.91 1006.75 1006.97 1007.03 1007.95 1008.52 1008.80 1009.15 1009.58 1009.71 1009.68 1009.38 1009.19 1008.66 1008.34 1008.58 1009.07 1009.85 1010.05 1010.34 1010.76 1010.60 1011.20 1012.19 1013.03 1013.75 1014.20 1014.34 1014.25 1014.54 1015.03 1015.76 1016.27 1016.77 1017.48 1018.03 1018.27 1018.74 1019.83
1014.51 1013.94 1013.99 1013.74 1013.58 1012.27 1012.28 1008.98 1008.50 1007.38 1006.63 1006.78 1006.67 1007.47 1008.36 1009.31 1010.03 1010.33 1010.55 1010.50 1010.67 1010.98 1010.79 1009.63 1009.68 1009.11 1009.28 1009.78 1010.47 1010.94 1010.83 1010.60 1010.62 1010.97 1012.03 1013.13 1014.11 1014.45 1014.57 1014.65 1014.92 1014.96 1015.44 1016.14 1016.69 1017.20 1017.54 1017.98 1018.57
1014.71 1014.60 1014.58 1014.35 1013.83 1013.14 1012.02 1011.18 1007.87 1007.35 1006.96 1007.30 1007.85 1008.54 1009.97 1010.81 1011.55 1012.14 1012.49 1013.04 1012.88 1011.95 1010.03 1010.65 1010.64 1010.53 1010.54 1010.38 1010.51 1011.04 1011.16 1010.99 1010.88 1011.23 1011.28 1012.17 1012.89 1013.63 1014.31 1014.64 1014.90 1015.03 1015.23 1015.31 1015.57 1016.28 1016.82 1017.07 1017.04
1015.47 1015.25 1014.91 1014.65 1014.10 1012.28 1010.94 1010.61 1008.25 1007.75 1007.71 1008.10 1009.46 1010.84 1011.71 1012.66 1013.41 1013.41 1013.17 1012.81 1012.27 1012.30 1012.47 1012.13 1011.58 1011.53 1011.57 1011.35 1011.30 1011.27 1011.28 1011.27 1011.52 1011.78 1011.80 1011.67 1012.02 1012.45 1013.16 1014.15 1014.57 1014.90 1015.15 1015.10 1015.28 1015.62 1016.05 1016.26 1016.54
1015.29 1015.43 1014.54 1013.82 1013.59 1011.44 1011.27 1010.83 1009.47 1008.76 1009.28 1010.19 1010.94 1012.36 1013.23 1013.72 1013.56 1013.58 1013.51 1013.56 1013.15 1013.36 1013.64 1013.41 1013.09 1012.72 1012.36 1012.00 1011.96 1011.75 1011.51 1011.49 1011.39 1011.53 1011.77 1011.78 1011.99 1012.19 1012.17 1012.61 1013.24 1014.13 1014.72 1015.18 1015.41 1015.48 1015.55 1015.77 1016.09
1014.56 1014.41 1014.25 1013.76 1013.04 1011.92 1011.92 1009.21 1008.37 1008.91 1010.40 1011.23 1011.82 1012.55 1013.40 1014.16 1014.28 1014.67 1014.68 1014.46 1014.73 1014.92 1014.52 1014.00 1013.83 1013.87 1013.55 1012.98 1012.52 1012.30 1011.78 1011.84 1011.69 1011.35 1011.32 1011.26 1011.55 1011.65 1012.03 1012.26 1012.49 1012.95 1013.56 1014.14 1014.65 1015.24 1015.56 1015.57 1015.49
1014.56 1014.52 1014.04 1013.74 1013.63 1012.79 1010.73 1009.23 1009.21 1009.39 1011.21 1012.58 1013.69 1014.28 1014.98 1015.69 1015.38 1015.14 1015.47 1015.55 1015.43 1015.39 1015.14 1014.91 1014.42 1014.22 1014.12 1013.92 1012.99 1012.46 1012.07 1012.26 1012.10 1011.87 1011.52 1011.16 1011.19 1011.48 1011.96 1011.99 1012.12 1012.31 1012.72 1013.68 1014.21 1014.28 1014.47 1014.79 1014.99
1014.63 1014.32 1014.40 1014.56 1013.65 1012.29 1010.60 1009.51 1009.06 1010.59 1012.27 1013.86 1014.62 1015.34 1015.84 1015.71 1015.97 1016.11 1016.24 1016.44 1016.38 1016.20 1015.70 1015.66 1015.44 1014.88 1014.43 1014.39 1013.56 1013.01 1012.97 1012.73 1012.52 1012.01 1011.80 1011.45 1011.20 1011.16 1011.45 1011.77 1012.05 1012.11 1012.15 1012.64 1013.57 1013.63 1013.80 1014.10 1014.37
1014.85 1014.64 1014.75 1014.55 1013.94 1012.77 1011.26 1009.67 1009.27 1010.93 1012.56 1014.46 1015.48 1015.94 1016.49 1016.39 1016.44 1016.57 1016.66 1016.78 1016.92 1016.86 1016.34 1015.70 1015.39 1015.31 1014.84 1013.98 1013.57 1013.59 1013.39 1013.19 1012.91 1012.62 1011.89 1011.52 1011.18 1011.19 1011.29 1011.39 1011.51 1011.33 1011.90 1012.33 1012.35 1012.97 1012.78 1012.92 1013.26
1014.65 1014.64 1014.40 1014.05 1013.53 1012.99 1012.31 1011.00 1011.98 1013.07 1014.58 1015.76 1016.99 1017.28 1017.50 1017.46 1017.28 1017.15 1017.01 1016.92 1016.88 1016.81 1016.75 1016.46 1015.97 1015.61 1015.47 1015.35 1014.71 1014.18 1013.86 1013.40 1012.89 1012.74 1012.32 1011.69 1011.07 1010.91 1010.93 1010.96 1011.09 1011.11 1010.97 1011.50 1011.66 1012.00 1012.33 1012.13 1012.41
Wind_Speed
1 4 2 4 5 4 3 2 3 3 2 1 2 3 4 6 5 6 3 8 6 15 16 17 14 16 15 13 11 11 11 11 12 12 12 12 11 10 9 8 8 9 11 11 9 7 7 5 6
2 2 2 1 4 4 3 1 3 2 1 1 4 4 6 7 4 3 3 10 9 14 15 17 12 15 15 14 13 11 10 10 11 12 11 12 12 11 9 6 3 5 9 9 6 7 7 5 7
1 3 3 2 2 3 3 1 2 2 3 4 3 3 4 3 2 2 2 12 10 14 14 13 11 13 14 15 14 13 12 11 11 13 11 11 11 8 8 4 3 7 7 7 6 6 6 6 7
1 3 3 4 7 8 6 5 6 9 2 4 3 7 3 4 1 1 3 13 11 13 13 12 12 13 13 13 15 14 13 12 14 14 13 7 7 7 5 5 6 8 8 8 7 6 7 6 7
1 1 3 3 5 5 7 7 6 5 2 3 2 2 4 2 2 2 5 11 12 15 13 13 9 11 13 13 14 13 13 15 15 11 8 6 8 8 7 7 8 8 8 8 9 8 7 8 7
2 2 4 4 4 5 7 5 4 5 2 1 4 6 4 3 4 5 6 10 10 14 14 14 12 9 10 11 13 13 13 14 12 10 8 8 9 8 9 8 8 8 8 8 9 8 8 8 8
2 3 3 5 6 5 1 1 3 3 2 4 2 5 4 5 1 3 5 8 9 12 13 13 14 13 10 11 10 10 10 8 10 10 9 9 9 11 10 9 9 9 9 9 9 9 8 7 8
1 2 2 4 3 5 2 3 1 6 4 2 2 5 5 3 4 4 5 8 10 11 13 13 13 14 15 14 11 9 10 10 10 13 11 9 9 8 8 7 9 10 10 9 9 9 9 9 9
1 4 5 4 5 2 4 5 4 3 9 5 8 9 9 4 4 5 7 8 10 11 14 14 14 14 15 14 12 9 10 10 10 10 11 10 9 10 10 8 8 11 10 10 9 9 9 9 8
5 4 5 4 5 6 5 5 6 6 13 15 12 16 12 5 7 9 11 12 15 16 16 15 16 16 15 11 14 14 13 12 12 11 11 11 10 9 9 7 7 9 9 9 9 8 7 3 3
5 7 6 7 11 7 8 8 4 9 15 15 14 13 9 10 12 14 15 16 17 16 14 18 16 16 16 13 11 8 8 9 10 14 13 12 9 8 7 7 7 8 8 7 8 7 4 4 3
6 11 9 4 4 4 7 5 9 14 26 22 20 16 14 15 14 15 17 17 16 15 17 17 18 16 17 11 11 11 10 10 10 12 16 11 8 9 9 7 9 8 7 7 6 4 4 5 4
9 9 10 11 9 10 11 21 17 21 24 24 20 16 17 16 17 16 15 15 15 17 16 17 17 18 16 16 12 12 13 11 12 12 14 12 11 11 10 10 9 8 8 7 7 6 5 4 4
1 7 12 10 14 13 11 23 3 13 11 15 13 17 15 14 16 14 13 16 16 15 17 16 19 19 18 17 18 13 13 13 13 13 14 17 12 11 11 10 10 9 8 6 6 6 5 5 4
4 11 16 15 11 9 9 13 16 20 8 15 19 16 13 13 13 16 14 14 14 16 17 19 20 20 21 21 19 14 13 13 13 13 17 18 15 15 14 11 10 9 8 9 6 6 5 5 4
6 4 10 7 4 3 9 18 20 13 7 13 18 21 21 25 23 17 15 15 15 15 16 17 14 18 21 20 16 13 13 13 13 13 13 18 17 16 14 11 11 10 9 8 8 8 6 5 5
7 12 13 13 6 3 11 11 14 10 15 26 24 24 22 20 22 16 15 14 15 15 16 16 18 20 21 20 15 15 16 13 13 13 13 17 17 17 14 11 11 12 10 9 9 8 8 7 6
15 12 11 11 10 8 17 20 20 24 23 25 26 24 18 17 16 14 14 14 15 13 13 13 12 16 16 13 13 12 12 12 13 13 13 18 14 18 14 11 12 12 10 10 9 10 7 7 7
13 17 21 21 18 16 22 21 19 21 23 25 23 18 14 11 11 11 11 13 12 10 9 10 11 11 11 11 12 12 13 11 12 12 17 18 16 19 16 11 13 12 12 12 13 10 12 6 8
16 18 21 20 15 5 17 22 26 22 23 21 18 14 11 8 7 12 14 14 14 14 12 8 8 10 11 10 10 11 10 11 11 11 13 16 17 18 15 15 13 15 11 14 14 13 9 5 10
16 15 20 21 17 14 13 13 3 7 13 12 11 8 2 5 12 15 16 18 17 17 15 12 9 6 8 10 7 7 5 7 8 9 10 11 14 15 17 17 13 14 12 12 14 14 14 9 9
17 12 15 14 8 10 8 12 10 13 14 7 5 3 11 14 16 18 19 21 22 20 17 16 13 7 3 7 7 10 9 9 8 9 10 10 14 15 16 15 15 15 12 13 12 11 12 10 10
7 3 2 2 7 10 4 9 3 2 5 4 8 11 15 17 18 17 17 16 15 15 20 19 15 12 8 3 6 6 10 8 6 5 9 12 12 16 16 16 16 14 11 13 15 15 14 11 10
1 5 3 1 5 9 8 7 3 3 1 3 11 14 15 15 14 15 15 17 22 22 19 17 17 15 10 6 4 6 9 9 7 7 6 7 9 11 15 15 14 14 13 14 13 14 16 13 10
5 5 9 8 7 11 5 5 7 11 5 9 12 13 13 13 16 19 22 21 22 22 20 17 18 17 14 10 7 6 7 9 10 10 8 8 7 8 14 16 16 13 14 13 12 13 14 15 12
10 9 8 7 12 17 6 15 10 9 12 14 16 15 16 15 14 16 17 16 17 17 18 18 18 19 18 15 12 9 7 6 8 9 8 8 8 9 12 14 15 16 15 14 14 11 11 12 13
7 9 5 7 10 11 15 24 11 7 8 11 12 12 12 11 13 16 16 16 16 16 16 16 16 16 17 17 15 14 11 9 9 11 9 8 9 8 11 13 15 16 15 15 14 12 14 13 14
6 3 9 5 8 17 14 18 14 10 6 5 8 10 11 12 13 12 12 12 12 14 13 15 15 15 14 14 14 13 14 12 10 9 10 10 10 10 10 12 14 15 15 15 16 13 13 14 11
7 7 8 6 6 6 6 12 3 8 7 6 7 8 10 11 11 10 10 10 11 11 13 14 15 16 17 17 16 14 13 13 12 10 9 9 10 10 10 11 12 14 14 15 16 17 16 17 16
4 14 15 12 9 10 13 15 7 10 8 7 6 5 6 8 9 9 9 10 11 12 12 12 13 14 14 15 14 14 14 14 14 14 14 12 10 9 10 11 11 12 14 15 17 18 15 17 17
Wind_Direction
3 1 299 241 250 252 251 192 312 261 244 39 108 258 314 316 285 330 101 181 180 166 172 177 177 175 173 173 166 163 166 164 162 150 145 139 131 121 113 106 108 111 102 86 81 82 77 75 72
39 281 235 244 261 267 84 90 235 314 359 214 227 228 251 285 262 281 225 177 179 170 174 180 175 173 173 173 171 178 183 182 171 159 152 145 139 134 122 101 118 132 87 92 104 96 95 82 72
66 343 279 312 278 310 351 187 28 0 271 235 254 256 297 246 209 302 47 164 173 175 179 181 173 178 177 179 177 181 189 196 172 154 149 151 153 135 108 110 141 115 123 122 112 105 104 97 82
227 171 140 267 282 280 269 306 302 304 170 226 286 261 221 269 281 95 146 164 171 178 185 167 183 190 187 180 183 188 191 193 167 161 168 142 119 129 166 170 138 132 135 133 121 121 111 95 88
49 219 228 259 273 274 261 291 293 289 295 204 219 304 263 200 201 173 170 179 180 179 184 183 191 196 199 191 194 195 191 182 174 165 131 163 148 150 191 174 154 145 140 142 135 129 121 111 99
150 280 235 267 273 267 281 269 274 258 262 174 226 266 267 127 213 192 182 190 194 185 184 189 185 187 172 182 192 194 185 182 166 142 154 190 158 179 190 188 167 156 154 148 137 133 125 116 106
235 228 291 285 285 282 240 175 232 282 274 253 304 272 285 239 174 166 189 195 196 193 190 194 194 190 178 173 175 174 176 183 167 147 175 175 174 186 190 188 180 172 161 149 143 131 121 110 100
153 244 213 227 279 283 187 214 243 261 308 91 233 243 278 94 123 158 178 192 199 198 201 202 202 200 199 194 180 189 188 187 181 160 176 156 162 182 184 180 188 177 162 153 143 136 128 118 105
222 234 239 243 211 237 176 243 164 298 274 225 208 248 285 128 155 183 186 200 202 208 210 205 205 207 208 206 197 192 199 188 167 158 149 149 196 193 182 192 177 178 165 156 147 138 122 106 91
227 238 243 234 223 252 269 244 285 257 264 256 256 250 243 215 222 228 219 215 210 210 206 207 207 207 208 208 204 209 205 204 201 193 168 189 195 194 192 183 209 161 157 159 151 138 125 176 128
178 242 245 236 241 255 277 269 242 260 268 262 274 288 278 236 238 238 239 237 227 221 210 209 206 205 204 203 207 207 206 206 201 195 185 189 187 181 188 183 184 174 167 171 163 156 181 152 151
235 244 240 262 213 218 262 292 258 245 263 277 284 288 280 264 254 241 241 238 234 224 217 209 209 207 206 204 205 205 206 202 197 191 187 181 185 187 188 189 184 182 184 173 175 172 155 142 119
235 252 248 245 248 249 272 262 263 265 266 278 278 273 266 268 263 262 255 254 243 235 225 217 208 209 208 206 206 208 207 203 201 195 192 188 190 188 185 190 187 186 180 181 178 166 158 141 132
304 263 273 272 254 242 241 267 277 250 269 280 275 274 274 261 266 269 252 250 240 239 232 220 214 211 207 208 211 206 206 202 200 196 195 195 191 189 189 187 190 185 187 178 175 168 165 162 152
323 298 293 261 251 236 219 264 233 267 272 274 284 285 285 269 268 263 267 251 241 233 231 220 214 211 211 209 210 206 205 202 200 200 195 193 193 190 188 187 187 185 182 174 169 168 168 163 156
267 249 280 299 163 184 203 271 284 304 298 285 289 287 284 283 288 290 278 259 251 245 231 230 218 212 213 214 212 208 206 204 205 202 198 195 193 191 191 187 187 179 177 179 178 174 171 172 173
222 270 260 289 237 161 210 277 287 286 292 290 287 283 285 293 292 301 288 266 263 255 242 233 220 217 217 218 214 212 211 210 209 205 201 198 196 193 190 189 186 176 179 184 181 178 178 175 171
273 262 254 264 283 261 281 266 274 282 283 277 284 283 295 291 308 318 306 297 282 269 254 247 231 226 220 220 219 217 216 213 212 207 206 197 194 193 194 191 183 180 180 182 183 177 180 179 157
285 271 274 277 286 291 287 294 294 285 277 279 280 292 289 311 332 333 343 339 327 315 295 268 251 235 219 211 211 216 224 221 225 216 209 203 196 191 192 191 186 186 186 184 183 174 169 160 159
260 270 276 278 277 280 285 295 291 283 274 271 285 293 303 329 31 26 17 11 4 358 348 325 278 255 223 217 214 211 214 225 233 227 227 215 204 196 194 189 186 187 185 187 186 178 173 163 182
254 262 269 280 307 276 295 275 256 293 272 297 276 269 336 35 30 21 18 24 21 13 357 353 337 278 238 241 230 216 245 215 214 227 232 227 222 207 198 197 189 187 188 189 188 188 180 171 190
274 280 270 285 301 290 5 295 300 273 284 323 40 89 93 55 32 33 27 22 18 10 7 16 4 353 268 223 232 234 242 235 219 215 213 217 222 221 215 208 200 191 190 193 191 188 191 184 179
272 9 300 283 283 304 258 264 308 239 248 173 22 74 54 34 35 35 35 28 24 20 28 17 21 27 6 308 237 239 252 263 267 244 206 209 208 217 219 216 209 204 200 198 189 187 193 195 184
328 275 240 208 284 263 310 235 13 264 227 92 91 73 50 39 35 37 42 39 32 28 24 23 24 27 20 1 299 265 272 274 280 268 239 212 206 206 213 218 217 212 210 203 198 195 198 196 200
184 263 298 277 231 267 68 289 283 282 7 25 81 68 49 45 36 32 29 25 28 29 28 28 25 24 19 17 350 315 292 281 272 268 252 241 224 218 216 206 205 210 213 214 209 203 203 202 201
197 205 215 257 269 287 303 263 251 235 87 66 56 47 40 37 39 35 32 34 30 26 27 29 29 24 22 18 8 345 329 296 285 270 261 258 243 233 224 215 213 211 209 209 204 207 214 210 209
156 217 282 267 260 276 269 269 252 237 70 63 60 60 54 42 40 37 28 23 23 21 24 23 26 26 20 13 19 14 2 327 299 289 276 264 255 256 241 221 215 214 208 210 208 211 208 209 210
230 318 254 221 255 246 247 257 252 166 124 87 66 40 31 33 31 30 27 26 20 14 18 19 18 22 20 12 18 16 11 358 328 305 288 278 272 251 231 229 227 224 215 207 211 213 213 210 214
228 230 227 270 258 261 252 241 306 146 125 103 48 35 24 22 22 20 20 21 17 15 11 13 15 11 8 10 9 8 11 6 359 337 316 294 282 262 248 236 227 219 218 219 213 221 213 210 209
283 265 257 247 241 225 249 253 95 113 128 117 101 60 33 26 11 5 9 13 10 9 8 9 6 9 6 359 359 3 1 3 5 357 343 328 303 280 255 247 234 227 221 219 220 222 220 212 213